www.pogodaiklimat.ru

Погода и климат >> Архив погоды >> Ирландия >> Обсерватория Валентия


ПОГОДА в Обсерватории Валентия

  • Прогноз погоды в Обсерватории Валентия
  • Монитор погоды в Обсерватории Валентия

АРХИВ ПОГОДЫ в Обсерватории Валентия

Время (UTC), дата Ветер
(напр.,м/с)
 
Видим.   Явления Облачность Т
(С)
Тd
(С)
f
(%)
Тe
(С)
Тes
(С)
Комфортность P
(гПа)
Po
(гПа)
Тmin
(С)
Tmax
(С)
R
(мм)
R24
(мм)
S
(см)
16 10.09 Ю 7 7000 м дымка н/о +15.3 +14.9 97 +13 +13 1019.4 1016.4
17 10.09 ЮЗ 7 11 км н/о +15.5 +15.1 97 +14 +14 1019.0 1016.0
18 10.09 ЮЗ 7 3800 м морось {дымка} н/о +15.7 +15.4 98 +14 +14 1018.6 1015.6 +15.8 0.7
19 10.09 ЮЗ 8 7000 м сильн. морось {дождь} н/о +15.9 +15.5 97 +14 +14 1017.9 1014.9
20 10.09 ЮЗ 9 12 км в посл. час морось н/о +16.4 +15.8 96 +15 +15 1018.3 1015.3
21 10.09 ЮЗ 7 2000 м в посл. час морось {дождь} н/о +16.1 +15.8 98 +15 +15 1018.4 1015.4
22 10.09 ЮЗ 5 2900 м дымка н/о +16.0 +15.7 98 +15 +15 1018.1 1015.1
23 10.09 ЮЗ 6 1800 м дымка н/о +16.0 +15.7 98 +15 +15 1018.3 1015.3
00 11.09 ЮЗ 8 14 км в посл. час морось {дождь} н/о +16.2 +15.9 98 +15 +15 1017.5 1014.5 3
01 11.09 ЮЗ 9 4400 м дымка н/о +16.3 +15.5 95 +15 +15 1017.0 1014.0
02 11.09 ЮЗ 9 3200 м слаб. ливневой дождь н/о +16.1 +15.7 97 +14 +14 1016.5 1013.5
03 11.09 ЮЗ 8 2800 м морось {ливн. осадки} н/о +16.0 +15.7 98 +14 +14 1016.3 1013.3
04 11.09 З 9 3500 м морось н/о +16.3 +15.8 97 +14 +14 1016.4 1013.4
05 11.09 З 4 5000 м слаб. ливневой дождь н/о +14.6 +14.2 97 +13 +13 1017.0 1014.0
06 11.09 З 6 14 км {ливн. осадки, морось} н/о +14.6 +13.4 93 +13 +13 1017.6 1014.6 +14.4 6
07 11.09 З 3 10 км н/о +14.7 +13.3 91 +14 +14 1018.2 1015.2
08 11.09 З 3 9000 м дымка н/о +15.2 +13.8 91 +14 +14 1019.0 1016.0
09 11.09 З 4 10 км {дымка} н/о +15.3 +13.4 88 +14 +14 1019.7 1016.7
10 11.09 З 4 14 км н/о +15.6 +12.5 82 +15 +15 1020.2 1017.2
11 11.09 З 5 19 км н/о +16.2 +12.3 78 +15 +15 1020.9 1017.9
12 11.09 З 4 18 км {дымка} н/о +16.8 +12.0 73 +16 +16 1021.2 1018.2
13 11.09 З 7 14 км н/о +16.6 +12.9 79 +15 +15 1021.6 1018.6
14 11.09 З 5 17 км н/о +16.7 +12.2 75 +16 +16 1021.8 1018.8
15 11.09 З 4 16 км н/о +16.4 +12.3 77 +16 +16 1021.8 1018.7
16 11.09 З 4 19 км н/о +16.6 +11.5 72 +16 +16 1022.1 1019.1
17 11.09 З 4 19 км н/о +16.4 +12.1 76 +16 +16 1022.3 1019.3
18 11.09 ЮЗ 3 17 км н/о +15.4 +12.0 80 +15 +15 1022.3 1019.3 +17.2
19 11.09 Ю 2 16 км н/о +15.2 +12.2 82 +15 +15 1022.5 1019.5
20 11.09 Ю 4 13 км н/о +14.9 +13.0 88 +14 +14 1022.6 1019.6
21 11.09 Ю 3 5000 м слаб. ливневой дождь н/о +14.7 +13.9 95 +14 +14 1022.2 1019.2
22 11.09 Ю 5 4000 м в посл. час морось н/о +14.6 +14.2 97 +13 +13 1022.1 1019.1
23 11.09 Ю 5 4400 м в посл. час морось н/о +15.6 +15.4 99 +14 +14 1022.0 1019.0
00 12.09 ЮЗ 4 5000 м дымка {ливн. осадки} н/о +15.6 +15.3 98 +15 +15 1022.1 1019.0 0.4
01 12.09 ЮЗ 7 14 км н/о +15.8 +15.4 97 +14 +14 1022.0 1018.9
02 12.09 ЮЗ 6 7000 м дымка н/о +16.2 +15.7 97 +15 +15 1021.5 1018.5
03 12.09 ЮЗ 8 14 км {дымка} н/о +16.3 +15.5 95 +15 +15 1021.3 1018.3
04 12.09 ЮЗ 8 13 км н/о +16.3 +15.2 93 +15 +15 1020.8 1017.8
05 12.09 ЮЗ 8 10 км н/о +16.3 +15.1 93 +15 +15 1020.6 1017.6
06 12.09 ЮЗ 8 4500 м слаб. ливневой дождь н/о +16.0 +15.5 97 +14 +14 1020.8 1017.8 +14.5 0.5
07 12.09 ЮЗ 7 3800 м дымка н/о +16.2 +15.8 97 +15 +15 1021.0 1018.0
08 12.09 ЮЗ 6 5000 м в посл. час морось н/о +16.5 +16.2 98 +15 +15 1021.6 1018.6
09 12.09 ЮЗ 6 3300 м в посл. час морось {дымка} н/о +16.8 +16.5 98 +16 +16 1022.3 1019.3
10 12.09 З 6 10 км н/о +16.4 +16.1 98 +15 +15 1023.3 1020.3
11 12.09 С 6 26 км н/о +14.8 +14.3 97 +13 +13 1024.4 1021.4
12 12.09 С 6 28 км {морось, дымка} н/о +15.2 +13.7 91 +14 +14 1025.6 1022.6 0.5
13 12.09 С 5 24 км н/о +15.5 +13.6 88 +14 +14 1026.8 1023.8
14 12.09 С 6 25 км н/о +15.2 +11.8 80 +14 +14 1027.8 1024.8
15 12.09 С 7 30 км н/о +15.6 +10.6 72 +14 +14 1028.5 1025.5
16 12.09 С 5 30 км н/о +15.2 +10.6 74 +14 +14 1029.2 1026.2
17 12.09 С 5 30 км н/о +15.0 +8.9 67 +14 +14 1030.2 1027.1
18 12.09 С 5 29 км н/о +14.4 +8.3 67 +13 +13 1031.1 1028.1 +16.8 0.5
19 12.09 С 4 35 км н/о +13.7 +8.5 71 +12 +12 1032.0 1029.0
20 12.09 С 3 30 км н/о +13.4 +8.3 71 +12 +12 1032.9 1029.8
21 12.09 С 3 30 км н/о +13.0 +8.5 74 +12 +12 1033.8 1030.7
22 12.09 СВ 3 30 км н/о +12.5 +8.3 76 +11 +11 1034.3 1031.2
23 12.09 В 2 35 км н/о +11.2 +7.8 80 +10 +10 1034.6 1031.5
00 13.09 ЮВ 1 35 км н/о +9.5 +7.7 89 +9 +9 1035.2 1032.1
01 13.09 В 1 30 км н/о +9.3 +7.8 90 +9 +9 1035.5 1032.4
02 13.09 СВ 1 30 км н/о +7.9 +6.7 92 +7 +7 1035.4 1032.3
03 13.09 В 1 29 км н/о +8.4 +7.6 95 +8 +8 1035.9 1032.8
04 13.09 В 2 35 км н/о +7.3 +6.6 95 +5 +5 1036.2 1033.0
05 13.09 С 1 30 км н/о +7.5 +7.0 97 +6 +6 1036.5 1033.4
06 13.09 В 1 24 км н/о +7.4 +7.0 97 +6 +6 1037.0 1033.9 +6.9
07 13.09 В 1 28 км н/о +7.1 +6.5 96 +6 +6 1037.3 1034.2
08 13.09 В 1 30 км н/о +9.4 +8.6 95 +9 +9 1037.6 1034.5
09 13.09 С 1 30 км н/о +12.7 +11.0 89 +13 +13 1037.9 1034.8
10 13.09 З 1 27 км н/о +15.7 +10.4 71 +16 +16 1037.9 1034.8
11 13.09 СЗ 1 45 км н/о +15.6 +9.8 68 +16 +16 1037.8 1034.7
12 13.09 С 3 27 км н/о +15.1 +10.9 76 +14 +14 1038.0 1034.9
13 13.09 СЗ 3 24 км н/о +15.9 +12.1 78 +15 +15 1038.0 1034.9
14 13.09 З 3 22 км н/о +15.8 +11.8 77 +15 +15 1037.6 1034.6
15 13.09 З 3 25 км н/о +16.1 +10.8 71 +16 +16 1037.2 1034.1
16 13.09 З 3 29 км н/о +15.6 +11.1 75 +15 +15 1036.8 1033.7
17 13.09 З 2 25 км н/о +15.5 +10.6 73 +15 +15 1036.2 1033.2
18 13.09 ЮЗ 1 25 км н/о +14.8 +9.6 71 +15 +15 1036.2 1033.1 +16.4
19 13.09 Ю 2 45 км н/о +12.7 +8.3 75 +12 +12 1036.6 1033.5
20 13.09 В 1 45 км н/о +11.0 +7.7 80 +11 +11 1036.8 1033.7
21 13.09 В 1 45 км н/о +10.1 +7.6 84 +10 +10 1036.5 1033.4
22 13.09 штиль 0 30 км н/о +9.9 +7.5 85 +9 +9 1036.3 1033.2
23 13.09 СВ 1 40 км н/о +9.0 +7.1 88 +8 +8 1035.8 1032.6
00 14.09 В 2 45 км н/о +8.9 +7.3 90 +7 +7 1035.9 1032.8
01 14.09 СВ 1 50 км н/о +8.9 +7.5 91 +8 +8 1035.4 1032.3
02 14.09 Ю 2 45 км н/о +9.8 +7.9 88 +8 +8 1034.7 1031.6
03 14.09 Ю 2 45 км н/о +9.5 +8.1 91 +8 +8 1033.8 1030.7
04 14.09 штиль 0 45 км н/о +8.5 +7.4 93 +8 +8 1033.0 1029.9
05 14.09 СЗ 1 40 км н/о +9.5 +8.0 90 +9 +9 1032.8 1029.7
06 14.09 З 2 40 км н/о +9.7 +8.6 93 +8 +8 1032.8 1029.7 +8.3
07 14.09 Ю 3 40 км н/о +12.4 +10.5 88 +11 +11 1032.7 1029.6
08 14.09 Ю 3 40 км н/о +13.0 +10.9 87 +12 +12 1032.9 1029.8
09 14.09 Ю 4 30 км н/о +14.1 +11.6 85 +13 +13 1032.5 1029.4
10 14.09 Ю 4 28 км н/о +14.5 +11.5 82 +13 +13 1032.1 1029.0
11 14.09 Ю 5 30 км н/о +15.5 +11.9 79 +14 +14 1031.7 1028.7
12 14.09 Ю 5 30 км н/о +15.8 +11.9 78 +15 +15 1031.7 1028.6
13 14.09 Ю 4 30 км н/о +16.4 +12.1 76 +16 +16 1031.5 1028.5
14 14.09 ЮЗ 5 30 км н/о +16.2 +11.7 75 +15 +15 1030.9 1027.9
15 14.09 Ю 5 35 км н/о +16.1 +12.1 77 +15 +15 1030.2 1027.1
16 14.09 ЮЗ 4 30 км н/о +16.1 +12.3 78 +15 +15 1029.9 1026.8
17 14.09 ЮЗ 4 35 км н/о +16.2 +12.6 79 +15 +15 1029.7 1026.7
18 14.09 Ю 4 35 км н/о +15.6 +12.6 82 +15 +15 1029.4 1026.3 +16.6
19 14.09 Ю 3 30 км н/о +15.0 +13.0 88 +14 +14 1029.4 1026.4
20 14.09 Ю 4 30 км н/о +15.0 +13.0 88 +14 +14 1029.5 1026.4
21 14.09 ЮЗ 4 27 км н/о +14.9 +12.9 88 +14 +14 1029.3 1026.2
22 14.09 ЮЗ 3 24 км н/о +14.7 +13.1 90 +14 +14 1029.3 1026.3
23 14.09 ЮЗ 3 13 км н/о +14.6 +13.4 93 +14 +14 1028.9 1025.9
00 15.09 Ю 3 14 км н/о +14.6 +13.6 94 +14 +14 1028.4 1025.3
01 15.09 ЮЗ 3 10 км н/о +14.7 +14.0 96 +14 +14 1028.5 1025.4
02 15.09 ЮЗ 3 1100 м дымка ?/? +14.7 +14.4 98 +14 +14 1028.1 1025.1
03 15.09 ЮЗ 3 2600 м дымка н/о +14.8 +14.6 99 +14 +14 1027.6 1024.6
04 15.09 ЮЗ 3 2800 м в посл. час морось {ливн. осадки} н/о +14.8 +14.6 99 +14 +14 1027.1 1024.1
05 15.09 ЮЗ 4 3300 м в посл. час морось {ливн. осадки} н/о +14.8 +14.6 99 +13 +13 1026.7 1023.7
06 15.09 ЮЗ 4 1900 м дымка {ливн. осадки} ?/? +14.8 +14.7 99 +13 +13 1026.5 1023.4 +14.5 0.6
07 15.09 ЮЗ 3 3300 м в посл. час морось {ливн. осадки} н/о +15.0 +14.9 99 +14 +14 1026.5 1023.5
08 15.09 ЮЗ 3 1700 м дымка н/о +15.2 +15.1 99 +14 +14 1026.5 1023.5
09 15.09 ЮЗ 4 3900 м дымка {ливн. осадки} н/о +15.6 +15.5 99 +15 +15 1026.7 1023.7
10 15.09 ЮЗ 4 5000 м дымка н/о +15.7 +15.6 99 +15 +15 1026.8 1023.7
11 15.09 З 5 5000 м дымка н/о +15.8 +15.6 99 +15 +15 1027.0 1024.0
12 15.09 З 6 21 км {ливн. осадки, дымка} н/о +16.2 +15.6 96 +15 +15 1026.6 1023.6 0.3
13 15.09 ЮЗ 5 15 км н/о +16.5 +15.8 96 +16 +16 1026.1 1023.1
14 15.09 ЮЗ 5 3700 м дымка н/о +16.0 +15.4 96 +15 +15 1026.0 1023.0
15 15.09 З 6 40 км {дымка} н/о +15.9 +15.3 96 +14 +14 1025.7 1022.7
16 15.09 ЮЗ 5 40 км н/о +16.0 +15.0 94 +15 +15 1025.3 1022.2
17 15.09 ЮЗ 4 24 км н/о +15.8 +14.9 94 +15 +15 1025.0 1022.0
18 15.09 ЮЗ 4 28 км {дымка} н/о +15.7 +15.0 96 +15 +15 1024.6 1021.6 +16.6 0.3
19 15.09 ЮЗ 3 26 км н/о +15.6 +15.0 96 +15 +15 1024.6 1021.5
20 15.09 ЮЗ 3 25 км н/о +15.5 +14.9 96 +15 +15 1024.7 1021.7
21 15.09 ЮЗ 3 19 км н/о +15.6 +15.0 96 +15 +15 1024.8 1021.8
22 15.09 ЮЗ 4 10 км н/о +15.6 +15.1 97 +15 +15 1024.7 1021.7
23 15.09 ЮЗ 4 10 км слаб. ливневой дождь н/о +15.6 +15.3 98 +15 +15 1024.3 1021.3
00 16.09 ЮЗ 4 12 км {ливн. осадки} н/о +15.7 +15.4 98 +15 +15 1024.3 1021.3 0.1
01 16.09 ЮЗ 5 3600 м дымка н/о +15.8 +15.5 98 +15 +15 1024.3 1021.2
02 16.09 З 5 2600 м морось н/о +15.8 +15.5 98 +15 +15 1024.0 1020.9
03 16.09 З 6 3600 м морось {дымка} н/о +15.7 +15.4 98 +14 +14 1023.5 1020.5
04 16.09 З 5 3400 м дымка н/о +15.6 +15.4 99 +14 +14 1023.1 1020.0
05 16.09 З 3 400 м туман ?/? +15.4 +15.3 99 +15 +15 1022.9 1019.8
06 16.09 З 3 400 м туман ?/? +15.3 +15.3 100 +15 +15 1023.0 1019.9 +15.3 2
07 16.09 З 1 300 м слаб. морось ?/? +15.3 +15.3 100 +16 +16 1023.1 1020.1
08 16.09 З 2 300 м туман ?/? +15.4 +15.3 99 +15 +15 1023.5 1020.5
09 16.09 З 2 500 м туман ?/? +15.6 +15.6 100 +15 +15 1023.8 1020.8
10 16.09 З 2 4300 м в посл. час туман н/о +15.7 +15.6 99 +16 +16 1024.3 1021.3
11 16.09 СЗ 2 23 км н/о +15.5 +15.4 99 +15 +15 1024.4 1021.4
12 16.09 С 3 35 км {морось, туман} н/о +16.1 +15.3 95 +16 +16 1024.5 1021.5 0.5
13 16.09 СЗ 3 40 км н/о +16.8 +15.3 91 +17 +17 1024.4 1021.4
14 16.09 С 3 40 км н/о +17.3 +15.0 86 +17 +17 1024.3 1021.3
15 16.09 СВ 2 50 км н/о +18.2 +14.9 81 +19 +19 1024.0 1021.0
16 16.09 С 4 45 км н/о +17.5 +14.1 80 +17 +17 1024.0 1021.0
17 16.09 СВ 3 45 км н/о +17.4 +14.3 82 +17 +17 1024.2 1021.2
18 16.09 В 3 50 км н/о +16.3 +13.6 84 +16 +16 1024.8 1021.7 +18.4 0.5
19 16.09 СВ 3 27 км н/о +15.7 +12.9 83 +15 +15 1025.3 1022.3
20 16.09 В 3 40 км н/о +14.9 +12.4 85 +14 +14 1025.4 1022.4
21 16.09 В 5 40 км н/о +14.6 +11.8 83 +13 +13 1025.8 1022.8
22 16.09 В 4 50 км н/о +14.2 +11.4 83 +13 +13 1026.2 1023.2
23 16.09 В 4 50 км н/о +14.2 +11.0 81 +13 +13 1026.3 1023.3
00 17.09 В 5 50 км н/о +14.1 +11.0 82 +12 +12 1026.3 1023.2
01 17.09 В 3 45 км н/о +13.4 +10.5 83 +12 +12 1026.2 1023.1
02 17.09 С 1 50 км н/о +11.5 +10.0 90 +11 +11 1026.2 1023.1
03 17.09 СВ 2 50 км н/о +12.1 +10.5 90 +11 +11 1026.3 1023.3
04 17.09 СВ 2 50 км н/о +12.1 +10.6 91 +11 +11 1026.3 1023.3
05 17.09 В 1 50 км н/о +12.2 +10.8 91 +12 +12 1026.6 1023.5
06 17.09 СВ 1 35 км н/о +12.4 +11.1 92 +12 +12 1027.0 1023.9 +11.4
07 17.09 СВ 2 40 км н/о +12.7 +11.7 94 +12 +12 1027.5 1024.4
08 17.09 В 3 50 км н/о +14.1 +12.3 89 +13 +13 1027.7 1024.7
09 17.09 СВ 2 40 км н/о +14.7 +12.7 88 +14 +14 1027.9 1024.9
10 17.09 СВ 2 50 км н/о +16.0 +12.4 79 +16 +16 1028.2 1025.1
11 17.09 СВ 2 40 км н/о +16.3 +12.6 79 +16 +16 1028.2 1025.2
12 17.09 С 1 50 км н/о +16.6 +12.5 77 +17 +17 1028.2 1025.2
13 17.09 СЗ 3 30 км н/о +17.6 +12.5 72 +18 +18 1028.1 1025.1
14 17.09 СЗ 3 30 км н/о +17.6 +12.5 72 +18 +18 1028.0 1025.0
15 17.09 СЗ 3 35 км н/о +17.1 +12.1 72 +17 +17 1028.2 1025.1

 

Местоположение метеостанции Обсерватория Валентия (Ирландия): широта 51.93 долгота -10.25 высота над уровнем моря 9 м.

В архиве по умолчанию представлена погода в Обсерватории Валентия за последнюю неделю. Архивные данные за месяц целиком и за предыдущие месяцы, начиная с января 2011 года, Вы можете получить, выбрав интересующий диапазон дат из раскрывающегося списка и нажав кнопку "Ввод!".


*Определитесь, кто Вы:
робот инопланетянин человек

Внимание! Время в таблицах - всемирное. Для получения местного времени необходимо прибавить поправку, которая равна 0 ч.

Смотрите также архив погоды в соседних городах и на ближайших метеорологических станциях:

Погода на Острове Шеркин (Ирландия) (75 км)
Погода в Аэропорту Корка (Ирландия) (122 км)
Погода в Аэропорту Шэннон (Ирландия) (124 км)
Погода на Маяке Roches Point (Ирландия) (138 км)
Погода в Обсерватории Мейс-Хед (Ирландия) (156 км)
Погода в Гортине (Ирландия) (195 км)
Погода в Крэрморрисе (Ирландия) (215 км)
Погода в Аэропорту Нок (Ирландия) (240 км)
Погода в Ок Парк (Ирландия) (249 км)
Погода в Белмаллете (Ирландия) (256 км)

Пояснения к столбцам:

Ветер - указаны скорость ветра в м/с - средняя за 10 мин, порывы в срок и между сроками (в фигурных скобках) и направление, откуда дует ветер: С - северный, СВ - северо-восточный, В - восточный, ЮВ - юго-восточный, Ю - южный, ЮЗ - юго-западный, З - западный, СЗ - северо-западный.
Видимость - горизонтальная дальность видимости в метрах или километрах. При видимости от 1 до 10 км при отсутствии осадков обычно наблюдается дымка, при ухудшении видимости до 1 км и менее - туман. В сухую погоду видимость может ухудшаться дымом, пылью или мглою.
Явления - указаны атмосферные явления, наблюдавшиеся в срок или в последний час перед сроком; фигурными скобками обозначены явления, наблюдавшиеся между сроками (за 1-3 часа до срока); квадратными скобками обозначены град или гололедные отложения с указанием их диаметра в мм.
Облачность - указаны через наклонную черту общая и нижняя облачность в баллах и высота нижней границы облаков в метрах; квадратными скобками обозначены формы облаков: Ci - перистые, Cs - перисто-слоистые, Cc - перисто-кучевые, Ac - высококучевые, As - высокослоистые, Sc - слоисто-кучевые, Ns - слоисто-дождевые, Cu - кучевые, Cb - кучево-дождевые. Подробнее классификацию облаков см. в Атласе облаков (PDF).
T - Температура воздуха - температура, измеренная на высоте 2 м над землей.
Td - Температура точки росы - температура, при понижении до которой содержащийся в воздухе водяной пар достигнет насыщения.
f - Относительная влажность воздуха - влажноcть воздуха, измеренная на высоте 2 м над землей.
Te - Эффективная температура - температура, которую ощущает одетый по сезону человек в тени. Характеристика душности погоды. При расчете учитывается влияние влажности воздуха и скорости ветра на теплоощущения человека.
Tes - Эффективная температура на солнце - температура, которую ощущает человек, с поправкой на солнечный нагрев. Характеристика знойности погоды. Зависит от высоты солнца над горизонтом, облачности и скорости ветра. Ночью, в пасмурную погоду, а также при ветре 12 м/с и более поправка равна нулю.
P - Атмосферное давление - приведенное к уровню моря атмосферное давление.
Po - Атмосферное давление - измеренное на уровне метеостанции атмосферное давление.
Tmin - Минимальная температура - минимум температуры воздуха на высоте 2 м над землей.
Tmax - Максимальная температура - максимум температуры воздуха на высоте 2 м над землей.
R - Количество осадков - Количество выпавших осадков за период времени, мм. При наведении курсора мыши на число - период времени, за который выпало указанное количество осадков.
R24 - Количество осадков - Количество выпавших осадков за 24 часа, мм.
S - Снежный покров - Высота снежного покрова, см. При наведении курсора мыши на число - состояние снежного покрова и степень покрытия местности в баллах.